Weather History for Rolla, ND

Change the Weather History Date:

Monday, November 4, 2013

  Actual Average (KRUG) Record (KRUG)
Temperature  
Mean Temperature 32 °F -  
Max Temperature 39 °F 40 °F 70 °F (1975)
Min Temperature 24 °F 23 °F -7 °F (1991)
Degree Days  
Heating Degree Days 34    
Moisture  
Dew Point 23 °F    
Average Humidity 76    
Maximum Humidity 100    
Minimum Humidity 60    
Precipitation  
Precipitation 0.00 in - - ()
Sea Level Pressure  
Sea Level Pressure 29.72 in    
Wind  
Wind Speed 15 mph (West)    
Max Wind Speed 31 mph    
Max Gust Speed 41 mph    
Visibility 10 miles    
Events      
Averages and records for this station are not official NWS values.
T = Trace of Precipitation, MM = Missing Value Source: NWS Daily Summary

Daily Weather History Graph

Daily Weather History Graph

Search for Another Location

Airport:

Trip Planner

Search our weather history database for the weather conditions in past years. The results will help you decide how hot, cold, wet, or windy it might be!

Date:

Astronomy

Nov. 04, 2013 Rise Set
Actual Time 7:30 AM CST 5:12 PM CST
Civil Twilight 6:57 AM CST 5:46 PM CST
Nautical Twilight 6:19 AM CST 6:23 PM CST
Astronomical Twilight 5:42 AM CST 7:00 PM CST
Moon 8:48 AM CST (11/4) 6:12 PM CST (11/4)
Length of Visible Light 10h 48m
Length of Day
9h 41m
New Moon, 2% of the Moon is Illuminated
Nov 4
New Moon
Nov 9
First Quarter
Nov 17
Full
Nov 25
Last Quarter
Dec 2
New

Hourly Weather History & Observations

Time (CST) Temp. Windchill Dew Point Humidity Pressure Visibility Wind Dir Wind Speed Gust Speed Precip Events Conditions
12:15 AM 39.2 °F 30.8 °F 32.0 °F 75% 29.58 in 10.0 mi West 15.0 mph - N/A   Overcast
12:55 AM 37.4 °F 30.8 °F 28.4 °F 70% 29.58 in 10.0 mi West 9.2 mph - N/A   Mostly Cloudy
1:15 AM 37.4 °F 31.4 °F 28.4 °F 70% 29.59 in 10.0 mi WSW 8.1 mph - N/A   Partly Cloudy
1:35 AM 33.8 °F 30.8 °F 28.4 °F 81% 29.60 in 10.0 mi SSW 3.5 mph - N/A   Clear
1:55 AM 32.0 °F 24.8 °F 28.4 °F 87% 29.61 in 10.0 mi WSW 8.1 mph - N/A   Clear
2:15 AM 32.0 °F 25.6 °F 28.4 °F 87% 29.60 in 10.0 mi West 6.9 mph - N/A   Clear
2:35 AM 32.0 °F 26.4 °F 28.4 °F 87% 29.61 in 10.0 mi SW 5.8 mph - N/A   Clear
2:55 AM 32.0 °F 23.6 °F 28.4 °F 87% 29.61 in 10.0 mi WSW 10.4 mph - N/A   Clear
3:15 AM 32.0 °F 23.6 °F 28.4 °F 87% 29.62 in 10.0 mi West 10.4 mph - N/A   Clear
3:35 AM 32.0 °F 24.2 °F 28.4 °F 87% 29.62 in 10.0 mi West 9.2 mph - N/A   Clear
3:55 AM 32.0 °F 23.6 °F 28.4 °F 87% 29.62 in 10.0 mi WSW 10.4 mph - N/A   Clear
4:15 AM 32.0 °F 25.6 °F 28.4 °F 87% 29.63 in 10.0 mi SW 6.9 mph - N/A   Partly Cloudy
4:35 AM 30.2 °F 21.9 °F 28.4 °F 93% 29.62 in 10.0 mi SW 9.2 mph - N/A   Mostly Cloudy
4:55 AM 30.2 °F 21.3 °F 28.4 °F 93% 29.63 in 10.0 mi SW 10.4 mph - N/A   Overcast
5:15 AM 30.2 °F 21.9 °F 28.4 °F 93% 29.63 in 10.0 mi SW 9.2 mph - N/A   Overcast
5:35 AM 30.2 °F 21.9 °F 28.4 °F 93% 29.63 in 10.0 mi SW 9.2 mph - N/A   Overcast
5:55 AM 30.2 °F 22.6 °F 28.4 °F 93% 29.64 in 10.0 mi SW 8.1 mph - N/A   Overcast
6:15 AM 30.2 °F 22.6 °F 28.4 °F 93% 29.64 in 10.0 mi SW 8.1 mph - N/A   Overcast
6:35 AM 32.0 °F 23.6 °F 30.2 °F 93% 29.64 in 10.0 mi WSW 10.4 mph - N/A   Mostly Cloudy
6:55 AM 32.0 °F 23.0 °F 32.0 °F 100% 29.62 in 10.0 mi WSW 11.5 mph - N/A   Scattered Clouds
7:15 AM 32.0 °F 21.6 °F 30.2 °F 93% 29.63 in 10.0 mi West 15.0 mph 24.2 mph N/A   Mostly Cloudy
7:35 AM 32.0 °F 19.5 °F 28.4 °F 87% 29.63 in 10.0 mi West 21.9 mph 29.9 mph N/A   Overcast
7:55 AM 32.0 °F 20.8 °F 26.6 °F 80% 29.64 in 10.0 mi West 17.3 mph 28.8 mph N/A   Overcast
8:15 AM 32.0 °F 19.5 °F 26.6 °F 80% 29.65 in 10.0 mi West 21.9 mph 29.9 mph N/A   Overcast
8:35 AM 32.0 °F 22.5 °F 26.6 °F 80% 29.66 in 10.0 mi West 12.7 mph 25.3 mph N/A   Overcast
8:55 AM 32.0 °F 20.8 °F 26.6 °F 80% 29.66 in 10.0 mi West 17.3 mph 28.8 mph N/A   Overcast
9:15 AM 32.0 °F 20.5 °F 26.6 °F 80% 29.67 in 10.0 mi West 18.4 mph 29.9 mph N/A   Overcast
9:35 AM 32.0 °F 19.2 °F 24.8 °F 75% 29.67 in 10.0 mi WSW 23.0 mph 27.6 mph N/A   Overcast
9:55 AM 32.0 °F 18.9 °F 24.8 °F 75% 29.68 in 10.0 mi West 24.2 mph 29.9 mph N/A   Overcast
10:15 AM 32.0 °F 18.9 °F 24.8 °F 75% 29.68 in 10.0 mi West 24.2 mph 29.9 mph N/A   Overcast
10:35 AM 32.0 °F 18.4 °F 24.8 °F 75% 29.68 in 10.0 mi West 26.5 mph 34.5 mph N/A   Overcast
10:55 AM 32.0 °F 20.1 °F 24.8 °F 75% 29.69 in 10.0 mi West 19.6 mph 28.8 mph N/A   Overcast
11:35 AM 32.0 °F 19.8 °F 24.8 °F 75% 29.70 in 10.0 mi West 20.7 mph 32.2 mph N/A   Overcast
11:55 AM 32.0 °F 18.4 °F 23.0 °F 69% 29.70 in 10.0 mi West 26.5 mph 35.7 mph N/A   Overcast
12:15 PM 32.0 °F 18.9 °F 23.0 °F 69% 29.70 in 10.0 mi West 24.2 mph 31.1 mph N/A   Overcast
12:35 PM 32.0 °F 19.2 °F 23.0 °F 69% 29.70 in 10.0 mi West 23.0 mph 35.7 mph N/A   Overcast
12:55 PM 32.0 °F 18.6 °F 23.0 °F 69% 29.71 in 10.0 mi West 25.3 mph 36.8 mph N/A   Overcast
1:15 PM 32.0 °F 19.2 °F 23.0 °F 69% 29.71 in 10.0 mi West 23.0 mph 29.9 mph N/A   Overcast
1:35 PM 32.0 °F 18.6 °F 23.0 °F 69% 29.71 in 10.0 mi West 25.3 mph 39.1 mph N/A   Overcast
1:55 PM 32.0 °F 18.4 °F 21.2 °F 64% 29.71 in 10.0 mi West 26.5 mph 39.1 mph N/A   Overcast
2:15 PM 32.0 °F 18.6 °F 21.2 °F 64% 29.72 in 10.0 mi West 25.3 mph 39.1 mph N/A   Overcast
2:35 PM 32.0 °F 18.1 °F 21.2 °F 64% 29.72 in 10.0 mi West 27.6 mph 38.0 mph N/A   Overcast
2:55 PM 32.0 °F 20.1 °F 21.2 °F 64% 29.73 in 10.0 mi West 19.6 mph 32.2 mph N/A   Overcast
3:15 PM 32.0 °F 17.9 °F 21.2 °F 64% 29.74 in 10.0 mi West 28.8 mph 36.8 mph N/A   Overcast
3:35 PM 32.0 °F 17.4 °F 19.4 °F 60% 29.75 in 10.0 mi West 31.1 mph 41.4 mph N/A   Overcast
3:55 PM 30.2 °F 16.8 °F 19.4 °F 64% 29.76 in 10.0 mi West 23.0 mph 34.5 mph N/A   Mostly Cloudy
4:15 PM 30.2 °F 16.8 °F 19.4 °F 64% 29.77 in 10.0 mi West 23.0 mph 34.5 mph N/A   Scattered Clouds
4:55 PM 28.4 °F 15.4 °F 19.4 °F 69% 29.78 in 10.0 mi West 19.6 mph 38.0 mph N/A   Scattered Clouds
5:15 PM 28.4 °F 15.8 °F 17.6 °F 64% 29.79 in 10.0 mi West 18.4 mph 34.5 mph N/A   Mostly Cloudy
5:35 PM 28.4 °F 15.1 °F 19.4 °F 69% 29.80 in 10.0 mi West 20.7 mph 31.1 mph N/A   Mostly Cloudy
5:55 PM 28.4 °F 14.4 °F 19.4 °F 69% 29.81 in 10.0 mi West 23.0 mph 31.1 mph N/A   Overcast
6:15 PM 28.4 °F 14.7 °F 19.4 °F 69% 29.82 in 10.0 mi West 21.9 mph 29.9 mph N/A   Overcast
6:35 PM 26.6 °F 12.0 °F 17.6 °F 69% 29.82 in 10.0 mi West 23.0 mph 31.1 mph N/A   Overcast
6:55 PM 26.6 °F 13.1 °F 17.6 °F 69% 29.83 in 10.0 mi West 19.6 mph 31.1 mph N/A   Overcast
7:15 PM 26.6 °F 11.7 °F 17.6 °F 69% 29.84 in 10.0 mi WNW 24.2 mph 34.5 mph N/A   Overcast
7:35 PM 26.6 °F 11.4 °F 17.6 °F 69% 29.84 in 10.0 mi West 25.3 mph 31.1 mph N/A   Overcast
7:55 PM 26.6 °F 10.8 °F 17.6 °F 69% 29.84 in 10.0 mi West 27.6 mph 40.3 mph N/A   Overcast
8:15 PM 26.6 °F 12.7 °F 17.6 °F 69% 29.85 in 10.0 mi West 20.7 mph 32.2 mph N/A   Overcast
8:35 PM 26.6 °F 12.0 °F 17.6 °F 69% 29.85 in 10.0 mi West 23.0 mph 33.4 mph N/A   Overcast
8:55 PM 26.6 °F 11.4 °F 17.6 °F 69% 29.86 in 10.0 mi West 25.3 mph 33.4 mph N/A   Overcast
9:15 PM 24.8 °F 10.0 °F 15.8 °F 69% 29.87 in 10.0 mi WNW 21.9 mph 32.2 mph N/A   Overcast
9:35 PM 24.8 °F 10.7 °F 15.8 °F 69% 29.88 in 10.0 mi West 19.6 mph 28.8 mph N/A   Overcast
9:55 PM 24.8 °F 10.0 °F 17.6 °F 74% 29.88 in 10.0 mi West 21.9 mph 28.8 mph N/A   Overcast
10:15 PM 24.8 °F 11.9 °F 17.6 °F 74% 29.89 in 10.0 mi West 16.1 mph 20.7 mph N/A   Overcast
10:35 PM 24.8 °F 13.4 °F 17.6 °F 74% 29.90 in 10.0 mi West 12.7 mph 19.6 mph N/A   Overcast
10:55 PM 24.8 °F 12.4 °F 15.8 °F 69% 29.90 in 10.0 mi West 15.0 mph 24.2 mph N/A   Overcast
11:15 PM 24.8 °F 10.3 °F 15.8 °F 69% 29.90 in 10.0 mi West 20.7 mph 29.9 mph N/A   Overcast
11:35 PM 24.8 °F 11.1 °F 14.0 °F 64% 29.90 in 10.0 mi West 18.4 mph 34.5 mph N/A   Overcast
11:55 PM 24.8 °F 10.7 °F 14.0 °F 64% 29.91 in 10.0 mi West 19.6 mph 31.1 mph N/A   Overcast